{"data":{"norad_id":67327,"intl_designator":"2026-002Y","name":"STARLINK-36501","alt_names":[],"object_type":"PAYLOAD","status":"ACTIVE","operator":null,"country":"US","launch_date":"2026-01-04","launch_site_code":"AFETR","launch_vehicle":null,"mission":null,"orbit_class":"UNKNOWN","rcs_meters":null,"size_class":null,"mass_kg":null,"dimensions":null,"purposes":["comms"],"wikipedia_slug":null,"has_3d_model":false,"image_url":null,"decayed_at":null,"tle_current":{"epoch":"2026-09-19T10:27:45.461376Z","epoch_age_seconds":167332,"freshness":"FRESH","line1":"1 67327U 26002Y   26262.43594284  .00002326  00000+0  94002-4 0  9993","line2":"2 67327  43.0004 310.7606 0001371 276.8019  83.2676 15.27583097 40717","mean_motion":15.27583097,"eccentricity":0.0001371,"inclination_deg":43.0004,"raan_deg":310.7606,"arg_perigee_deg":276.8019,"mean_anomaly_deg":83.2676,"bstar":9.4002e-5,"rev_number":4071,"period_min":94.266557598601,"perigee_km":482.09915518081,"apogee_km":483.98048986555,"semimajor_km":6861.1768225232,"source":"CELESTRAK","updated_at":"2026-09-20T09:00:43.508281Z"}}}